Regional Weather Roundup
Issued by NWS

Home | Current Version | Previous Version | Text Only | Print | Product List | Glossary Off
Versions: 1 2 3 4 5 6 7 8 9 10 11 12 13 14 15 16 17 18 19 20 21 22 23 24 25 26 27 28 29 30 31 32 33 34 35 36 37 38 39 40 41 42 43 44 45 46 47 48 49 50

000
ASUS43 KDTX 300010
RWRMI
MICHIGAN HOURLY REGIONAL WEATHER ROUNDUP
NATIONAL WEATHER SERVICE DETROIT/PONTIAC MI
700 PM EST THU JAN 29 2015

NOTE: "FAIR" INDICATES FEW OR NO CLOUDS BELOW 12,000 FEET WITH NO
SIGNIFICANT WEATHER AND/OR OBSTRUCTION TO VISIBILITY.

MIZ047>049-052>055-059>063-066>070-074>076-081>083-300100-
SOUTHEAST LOWER MICHIGAN

CITY           SKY/WX    TMP DP  RH WIND       PRES   REMARKS
ADRIAN         CLOUDY    33  26  75 N10G20    29.97R WCI  25
6HR MIN TEMP:  33; 6HR MAX TEMP:  35; 6HR PCP: TRACE;

ALMA           CLOUDY    31  23  72 NW14G25   29.98R WCI  21
ANN ARBOR      CLOUDY    32  27  81 NW12      29.94R WCI  23
BAD AXE        LGT SNOW  30  29  95 NW9       29.88R WCI  22
6HR MIN TEMP:  28; 6HR MAX TEMP:  30;

CARO           CLOUDY    31  28  86 NW7       29.90R WCI  25
DETROIT CITY   CLOUDY    33  27  78 NW8       29.91R WCI  26
6HR MIN TEMP:  33; 6HR MAX TEMP:  37; 6HR PCP:  0.05;

DETROIT        CLOUDY    32  27  81 W14G20    29.93R WCI  22
6HR MIN TEMP:  32; 6HR MAX TEMP:  35; 6HR PCP:  0.03;

FLINT          CLOUDY    32  28  85 NW10      29.93R FOG     WCI  24
6HR MIN TEMP:  31; 6HR MAX TEMP:  33; 6HR PCP:  0.09;

GROSSE ILE     CLOUDY    34  28  80 NW12      29.91R WCI  25
HILLSDALE      CLOUDY    31  30  94 NW15      29.96R FOG     WCI  21
HOWELL         CLOUDY    31  29  92 NW9       29.93R FOG     WCI  23
6HR MIN TEMP:  31; 6HR MAX TEMP:  32;


CITY           SKY/WX    TMP DP  RH WIND       PRES   REMARKS
JACKSON        CLOUDY    31  28  89 NW10      29.96R FOG     WCI  22
6HR MIN TEMP:  31; 6HR MAX TEMP:  34; 6HR PCP:  0.06;

LAMBERTVILLE   CLOUDY    34  30  86 NW7       29.95R WCI  28
LANSING        CLOUDY    31  27  85 NW15      29.98R WCI  20
6HR MIN TEMP:  30; 6HR MAX TEMP:  32; 6HR PCP:  0.04;

LAPEER         CLOUDY    31  28  88 NW9G17    29.90R WCI  22
MASON          CLOUDY    31  28  90 NW12G18   29.96R WCI  21
MONROE         CLOUDY    34  28  80 NW12G17   29.93R WCI  25
MT. CLEMENS    CLOUDY    32  27  80 NW10      29.88R WCI  24
6HR MIN TEMP:  31; 6HR MAX TEMP:  33; 6HR PCP:  0.08;

PONTIAC        CLOUDY    30  26  85 NW13      29.89R WCI  20
6HR MIN TEMP:  30; 6HR MAX TEMP:  32; 6HR PCP:  0.03;

PORT HOPE        N/A     31  28  89 NW14G22   29.85R WCI  21
6HR MIN TEMP:  28; 6HR MAX TEMP:  31; 6HR PCP:  0.01;

PORT HURON     CLOUDY    30  27  86 NW9       29.88R WCI  22
TRI CITIES     CLOUDY    33  23  66 NW22G28   29.95R WCI  21
6HR MIN TEMP:  31; 6HR MAX TEMP:  34; 6HR PCP: TRACE;

TROY           CLOUDY    34  28  80 NW9       29.93R WCI  26
SAGINAW HB     CLOUDY    32  27  80 NW17      29.93R WCI  21
$$
MIZ043>046-050>051-056>058-064>065-071>073-077>080-300100-
SOUTHWEST LOWER MICHIGAN

CITY           SKY/WX    TMP DP  RH WIND       PRES   REMARKS
BATTLE CREEK   CLOUDY    33  26  75 NW15      30.01R WCI  23
6HR MIN TEMP:  33; 6HR MAX TEMP:  34; 6HR PCP: TRACE;

BENTON HARBOR  CLOUDY    34  27  75 NW9G20    30.08R WCI  27
6HR MIN TEMP:  32; 6HR MAX TEMP:  34; 6HR PCP: TRACE;

BIG RAPIDS     CLOUDY    29  24  84 N14G23    30.00R WCI  18
6HR MIN TEMP:  29; 6HR MAX TEMP:  32;

COLDWATER      CLOUDY    32  28  86 NW12      30.00R WCI  23
6HR MIN TEMP:  32; 6HR MAX TEMP:  34;

FREMONT        MIX PCPN  31  26  84 N13       30.03R WCI  21
6HR MIN TEMP:  31; 6HR MAX TEMP:  32;

HOLLAND        CLOUDY    34  26  72 N13G22    30.06R WCI  25
6HR MIN TEMP:  34; 6HR MAX TEMP:  35; 6HR PCP: TRACE;

GRAND RAPIDS   FLURRIES  32  24  72 NW17G33   30.02R WCI  21
6HR MIN TEMP:  32; 6HR MAX TEMP:  33; 6HR PCP: TRACE;

IONIA          CLOUDY    32  25  76 N16G23    29.99R WCI  21
KALAMAZOO      CLOUDY    33  25  72 NW18G28   30.03R WCI  22
6HR MIN TEMP:  33; 6HR MAX TEMP:  34; 6HR PCP: TRACE;

LUDINGTON      LGT SNOW  31  27  84 N13G25    30.07R WCI  21
6HR MIN TEMP:  31; 6HR MAX TEMP:  36; 6HR PCP:  0.01;

MARSHALL       CLOUDY    31  27  85 NW9G20    29.98R WCI  23
MOUNT PLEASANT CLOUDY    31  22  68 NW9G20    29.98R WCI  23
6HR MIN TEMP:  29; 6HR MAX TEMP:  33; 6HR PCP:  0.01;

MUSKEGON       LGT RAIN  34  26  72 NW13G22   30.05R WCI  25
6HR MIN TEMP:  33; 6HR MAX TEMP:  34; 6HR PCP: TRACE;

SOUTH HAVEN    CLOUDY    35  27  71 N17G26    30.07R WCI  25
$$
MIZ016>042-300100-
NORTHERN LOWER MICHIGAN

CITY           SKY/WX    TMP DP  RH WIND       PRES   REMARKS
ALPENA         CLOUDY    28  23  81 NW16G23   29.89R WCI  16
6HR MIN TEMP:  26; 6HR MAX TEMP:  30; 6HR PCP:  0.02;

BEAVER ISLAND  LGT SNOW  21  16  81 NW20G28   30.04R WCI   5
6HR MIN TEMP:  21; 6HR MAX TEMP:  31;

BELLAIRE       FLURRIES  25  19  76 NW10G24   30.04R WCI  15
6HR MIN TEMP:  25; 6HR MAX TEMP:  32;

CADILLAC       LGT SNOW  24  19  78 NW20G28   29.97R WCI  10
CHARLEVOIX     LGT SNOW  24  19  81 NW22G36   30.05R WCI   8
6HR MIN TEMP:  24; 6HR MAX TEMP:  31;

FRANKFORT      CLOUDY    26  20  79 N14G24    30.09R WCI  15
GAYLORD        LGT SNOW  22  20  92 NW14G24   29.93R FOG     WCI   9
6HR MIN TEMP:  22; 6HR MAX TEMP:  28; 6HR PCP: TRACE;

GRAYLING       LGT SNOW  25  19  80 NW16G35   29.96R WCI  12
6HR MIN TEMP:  25; 6HR MAX TEMP:  30;

HARBOR SPRINGS FLURRIES  23  17  76 W14G25    29.99R WCI  11
HOUGHTON LAKE  FLURRIES  25  19  78 NW20G32   29.95R WCI  11
6HR MIN TEMP:  25; 6HR MAX TEMP:  29; 6HR PCP: TRACE;

MANISTEE       CLOUDY    28  19  69 N16G23    30.08R WCI  17
OSCODA         CLOUDY    31  27  85 NW15G28   29.88R WCI  20
PELLSTON       MIX PCPN  22  18  85 NW21G38   29.98R FOG     WCI   6
6HR MIN TEMP:  22; 6HR MAX TEMP:  30; 6HR PCP: TRACE;

ROGERS CITY    CLOUDY    27  24  89 NW16G28   29.91R WCI  14
TRAVERSE CITY  FLURRIES  25  18  74 NW17G30   30.05R WCI  12
6HR MIN TEMP:  25; 6HR MAX TEMP:  33; 6HR PCP: TRACE;

$$
MIZ007>008-015-300100-
EASTERN UPPER MICHIGAN

CITY           SKY/WX    TMP DP  RH WIND       PRES   REMARKS
KINROSS        CLOUDY    19  18  93 NW25G35   29.91R WCI   2
6HR MIN TEMP:  19; 6HR MAX TEMP:  30;

MACKINAC ISLAN CLOUDY    23  18  81 NW15G25   29.94R WCI  10
6HR MIN TEMP:  23; 6HR MAX TEMP:  31;

NEWBERRY       LGT SNOW  17  15  89 NW15G30   30.01R WCI   3
S. S. MARIE    LGT SNOW  19  14  81 NW20G29   29.91R WCI   3
6HR MIN TEMP:  19; 6HR MAX TEMP:  29; 6HR PCP:  0.01;

MUNISING         N/A     22  15  75 N23G41    30.12R WCI   6
6HR MIN TEMP:  21; 6HR MAX TEMP:  27; 6HR PCP:  0.01;

$$
MIZ004>006-011>014-085-300100-
CENTRAL UPPER MICHIGAN

CITY           SKY/WX    TMP DP  RH WIND       PRES   REMARKS
MANISTIQUE     LGT SNOW  20  15  81 N21G26    30.06R WCI   4
6HR MIN TEMP:  20; 6HR MAX TEMP:  30;

ESCANABA       MOCLDY    19   9  63 NW20G33   30.14R WCI   4
6HR MIN TEMP:  19; 6HR MAX TEMP:  32;

MENOMINEE      MOCLDY    25   9  50 N16G32    30.15R WCI  12
6HR MIN TEMP:  25; 6HR MAX TEMP:  36;

SAWYER-GWINN   LGT SNOW  16  10  79 N18G30    30.11R WCI  -1
$$
MIZ001>003-009>011-084-300100-
WESTERN UPPER MICHIGAN

CITY           SKY/WX    TMP DP  RH WIND       PRES   REMARKS
IRON MOUNTAIN  CLOUDY    19  12  74 NW22      30.14R WCI   2
6HR MIN TEMP:  19; 6HR MAX TEMP:  32; 6HR PCP: TRACE;

HOUGHTON       LGT SNOW  16   8  71 N16G28    30.21R WCI   1
6HR MIN TEMP:  16; 6HR MAX TEMP:  23; 6HR PCP: TRACE;

COPPER HARBOR    N/A     19  12  74 NE31G39   30.22R WCI   0
6HR MIN TEMP:  18; 6HR MAX TEMP:  21;

IRONWOOD       CLOUDY    18  10  73 N20G26    30.24R WCI   1
6HR MIN TEMP:  18; 6HR MAX TEMP:  25;

$$

ABBREVIATIONS USED IN REMARKS
   TC - TEMPERATURE IN CELSIUS
  WCI - WIND CHILL INDEX
   HX - HEAT INDEX
  VSB - VISIBILITY



USA.gov is the U.S. government's official web portal to all federal, state and local government web resources and services.